Regional Weather Roundup
Issued by NWS

Home | Current Version | Previous Version | Text Only | Print | Product List | Glossary Off
Versions: 1 2 3 4 5 6 7 8 9 10 11 12 13 14 15 16 17 18 19 20 21 22 23 24 25 26 27 28 29 30 31 32 33 34 35 36 37 38 39 40 41 42 43 44 45 46 47 48 49 50

496
ASUS43 KBIS 252110
RWRND

NORTH DAKOTA REGIONAL WEATHER ROUNDUP
NATIONAL WEATHER SERVICE BISMARCK ND
400 PM CDT MON SEP 25 2017

NOTE: "FAIR" INDICATES FEW OR NO CLOUDS BELOW 12,000 FEET WITH NO
SIGNIFICANT WEATHER AND/OR OBSTRUCTIONS TO VISIBILITY.


NDZ001>003-009>011-017-252200-
NORTHWEST NORTH DAKOTA

CITY           SKY/WX    TMP DP  RH WIND       PRES   REMARKS
WILLISTON      CLOUDY    52  44  74 NE5       30.12F
MINOT          CLOUDY    55  42  61 E6        30.12F
MINOT AFB      CLOUDY    54  41  61 E6        30.11F
$$

NDZ018>021-031>035-040>046-252200-
SOUTHWEST NORTH DAKOTA

CITY           SKY/WX    TMP DP  RH WIND       PRES   REMARKS
BISMARCK       CLOUDY    53  43  68 NE5       30.12F
DICKINSON      CLOUDY    46  42  86 S6        30.10F
GARRISON         N/A     50  44  80 S3        30.13S
HETTINGER ARPT CLOUDY    49  38  65 CALM      30.12F
$$

NDZ004>008-012>016-024-026-027-054-252200-
NORTHEAST NORTH DAKOTA

CITY           SKY/WX    TMP DP  RH WIND       PRES   REMARKS
GRAND FORKS    CLOUDY    53  47  79 N12       30.12R
GRND FRKS AFB  CLOUDY    52  45  76 N12       30.13R
DEVILS LAKE    CLOUDY    51  41  68 NE10      30.14F
$$

NDZ022-023-025-028>030-036>039-047>053-252200-
SOUTHEAST NORTH DAKOTA

CITY           SKY/WX    TMP DP  RH WIND       PRES   REMARKS
FARGO          CLOUDY    53  47  79 N12       30.10R
JAMESTOWN      CLOUDY    50  43  77 N7        30.11F
$$





USA.gov is the U.S. government's official web portal to all federal, state and local government web resources and services.